DECAYED
Showing default

MULTIFUNCTION TEST SAT, 46233 (Decayed)

Orbit data source: Space-Track

MULTIFUNCTION TEST SAT, 46233 was a payload satellite owned by Junshi Kexue YY (CN) in LEO that was launched on Sun, 23 Aug 2020 UTC via a CHANG ZHENG 2D launch vehicle from the Jiuquan Satellite Launch Center, China (JSC). Payload-class satellites include a variety of spacecraft equipped with specific instruments for various scientific and technological missions. These include communications satellites like Starlink; space stations such as the ISS; scientific satellites like the Hubble; Earth observation satellites from companies like Planet Labs, Umbra, and HawkEye 360; GPS; miniature CubeSats for education and research; and military/defense satellites.

Not visible in the next 10 days
Identifier
46233, 2020-058B
Orbit
Decayed
Last TLE update
11 months ago
Origin
Flag of CNPLA Academy of Military Science (CN / PRC)
Manufacturer
Junshi Kexue YY
Mission
Decayed Defense Technology
Bus & Motor
CUBESAT?, Unknown motor
Mass
~10 kg wet, ~10 kg dry
Launch date (UTC)
2020-08-23 (5 years ago)
Launch vehicle
CHANG ZHENG 2D
Launch site
Jiuquan Satellite Launch Center, China (JSC)
Object type
Payload
Rocket body
Debris
Shape & HBR
Box, 0.3 m
Radar Cross Section
0.080 m², Medium (>0.1 m² and < 1m²)

Expand to show TLE details & history

TLE from 11 months ago
0 MULTIFUNCTION TEST SAT
1 46233U 20058B   24234.62244668  .07937579  24342-5  11767-2 0  9997
2 46233  97.2605 307.7228 0013441 252.3320 107.6510 16.34227145223875
Epoch: 2024-08-21T14:56Z
TLE epoch observation values (Epoch: 2024-08-21T14:56:19.393Z)
Latitude
0.00005°
Longitude
113.22001°
Altitude
187.137 km
Speed
7.792 km/s
True Right ascension
20h 30m 53s
True Declination
0° 00' 00"
Sunlit
Object was in full shadow at epoch
Visualization orbit readout
Visualization observer readout
Orbital elements
Apogee altitude
186.825 km
Perigee altitude
169.201 km
Semi-major axis
6,556.15 km
Eccentricity
0.00134
Inclination
97.2605°
RAAN
307.7228°
Arg. of periapsis
252.332°
True anomaly
Unknown
Mean anomaly
107.651°
Eccentric anomaly
Unknown
Mean motion
4.08855 °/min
Orbital period
88.05 mins
BSTAR
0.0011767
Loading maneuver chart data...
Loading SW <> Apogee altitude chart data...
Loading historical data...
Loading historical data...
Loading historical data...
Loading historical data...
Loading historical data...
Loading historical data...
Loading historical data...
Other satellites on launch #58 in the year 2020 (2020-08-23 UTC)

MULTIFUNCTION TEST SAT Visibility

Observer location: undefined°, undefined°

This satellite is decayed
Span
Click to sort rows by Start time (UTC) header in descending order
Start Az.
Max El. time (UTC)
Max El. Az.
Max El.
End time (UTC)
End Az.
|